Home > Weather > Papenburg > Past weeks

Flag for Germany Past Weather in Papenburg, Lower Saxony, Germany — Yesterday and Last 2 Weeks

Now
66 °F

Overcast.


Feels Like: 66 °F
Forecast: 58 / 73 °F
Wind: 5 mph from Northwest

Location: Emden-Koenigspolder

Current Time: Jul 26, 2016 at 4:19:51 PM

Latest Report: Jul 26, 2016 at 3:00 PM


Visibility: 2 mi

Pressure: 30.13 "Hg

Humidity: 82%

Dew Point: 60 °F

Location of PapenburgLocation

Past Weather in Papenburg — Graph

°F

Papenburg Temperature Yesterday

Maximum temperature yesterday: 74 °F (at 4:00 PM)
Minimum temperature yesterday: 62 °F (at 10:00 PM)
Average temperature yesterday: 67 °F

High & Low Weather Summary for the Past Weeks

 TemperatureHumidityPressure
High87 °F (Jul 20, 6:00 PM)100% (Jul 22, 10:00 AM)30.25 "Hg (Jul 22, 10:00 AM)
Low54 °F (Jul 14, 3:00 AM)45% (Jul 20, 4:00 PM)29.75 "Hg (Jul 11, 4:00 PM)
Average65 °F81%30.05 "Hg
* Reported Jul 11 3:00 PM — Jul 26 3:00 PM, Papenburg, Weather by CustomWeather, © 2016

Note: Actual official high and low records may vary slightly from our data, if they occured in-between our weather recording intervals... More about our weather records

Advertising

Papenburg Weather History for the Previous 24 Hours

Scroll right to see more
 ConditionsComfort  
Time TempWeatherWind HumidityBarometerVisibility
3:00 PM
Tue, Jul 26
66 °FOvercast.5 mph82%30.13 "Hg2 mi
1:00 PM69 °FScattered clouds.3 mph67%30.14 "Hg6 mi
12:00 PM68 °FOvercast.3 mph69%30.14 "Hg14 mi
10:00 AM65 °FOvercast.1 mph79%30.14 "Hg14 mi
9:00 AM65 °FPassing clouds.N/A78%30.14 "Hg25 mi
7:00 AM57 °FSunny.1 mph95%30.12 "Hg7 mi
6:00 AM58 °FSunny.1 mph95%30.11 "Hg7 mi
4:00 AM58 °FOvercast.2 mph93%30.11 "Hg9 mi
3:00 AM59 °FOvercast.2 mph94%30.11 "Hg6 mi
1:00 AM59 °FOvercast.2 mph94%30.11 "Hg5 mi
12:00 AM60 °FPassing clouds.1 mph93%30.11 "Hg6 mi
10:00 PM
Mon, Jul 25
62 °FOvercast.2 mph92%30.10 "Hg9 mi
9:00 PM65 °FOvercast.3 mph86%30.09 "Hg10 mi
8:00 PMN/APassing clouds.102 mphN/AN/A11 mi
7:00 PM66 °FOvercast.5 mph93%30.07 "Hg6 mi
6:00 PM68 °FOvercast.5 mph93%30.05 "Hg6 mi
4:00 PM74 °FOvercast.6 mph77%30.05 "Hg9 mi
Weather by CustomWeather, © 2016

See weather overviewHow to use our weather pages